Dewpoint
62 62 62 62 63 62 62 62 63 64 65 65 64 65 64 64 64 65 65 66 65 65 65 65 65 66 66 65 65 64 65 65 66 65 65 66 66 65 64 65 65 65
60 60 61 61 62 63 63 64 65 63 65 66 65 66 65 65 65 65 65 65 65 65 64 65 65 65 64 64 64 66 66 66 64 64 64 64 65 64 65 65 65 64
57 58 59 59 61 63 64 64 64 64 65 66 66 65 64 63 66 64 64 65 65 65 64 65 65 65 65 65 65 65 66 66 64 64 65 64 64 64 65 64 64 64
56 57 57 58 59 60 62 63 63 63 64 64 65 65 64 64 64 63 64 64 64 64 65 65 65 65 65 65 66 66 65 65 65 66 64 64 64 64 64 65 63 63
55 55 56 57 57 58 59 60 62 63 63 63 64 63 63 64 64 63 63 64 65 64 64 64 64 64 65 65 65 64 65 65 64 65 64 65 65 65 64 63 62 64
54 53 54 55 56 57 57 58 59 61 62 63 63 64 64 64 62 63 65 64 65 64 64 63 63 64 65 64 64 64 64 63 64 62 62 63 64 64 64 64 63 63
53 53 54 54 55 56 57 57 57 58 59 61 62 63 63 63 63 62 61 62 64 62 62 62 63 64 64 65 64 64 65 63 63 63 63 62 63 64 63 63 63 62
53 53 53 53 54 55 55 55 56 57 58 59 60 61 63 62 62 62 63 63 62 62 61 61 62 62 63 63 64 64 62 64 63 64 62 62 64 63 63 63 63 62
52 52 52 53 53 54 54 54 55 56 56 58 58 59 61 63 62 62 63 62 63 63 63 63 64 63 63 63 63 62 63 62 64 62 64 63 63 62 61 62 62 62
51 51 52 51 52 52 53 53 54 55 55 56 57 58 59 61 62 61 61 62 62 61 62 63 61 64 64 64 63 63 62 62 62 63 62 61 62 62 62 61 61 62
51 51 51 51 51 51 52 52 53 53 54 54 55 56 58 59 60 61 62 61 63 62 61 62 62 62 62 63 65 64 63 63 62 61 62 62 63 63 63 62 61 61
49 49 49 50 50 50 51 51 52 52 52 53 53 54 56 58 59 60 62 62 61 61 61 61 62 62 62 62 62 62 62 62 62 63 62 62 62 62 62 62 62 61
48 48 49 50 50 49 50 50 50 51 50 50 52 52 53 55 56 58 59 62 62 62 62 62 62 61 62 63 62 62 62 61 62 63 63 61 62 62 63 62 62 62
47 48 48 48 48 48 48 49 48 49 49 50 50 50 51 52 53 54 56 59 61 63 63 62 61 61 61 61 62 62 63 63 62 63 63 63 64 63 63 63 62 63
47 47 47 47 47 47 47 47 47 48 48 48 49 49 50 50 51 52 53 54 56 62 62 62 61 61 62 63 63 63 63 62 62 62 62 62 61 62 61 62 62 62
45 46 45 46 46 46 46 46 46 47 47 47 47 48 48 49 49 50 50 51 52 55 60 62 61 62 60 55 54 62 63 62 63 63 62 63 63 62 62 62 61 62
44 44 44 44 45 45 46 45 45 46 46 46 47 47 47 47 48 48 48 49 50 51 53 57 60 61 54 50 49 49 59 63 62 62 62 62 62 60 62 62 61 61
44 43 43 43 44 43 44 44 45 45 45 45 46 46 46 47 47 46 47 47 48 48 50 53 57 53 45 45 47 47 49 59 63 63 60 61 62 61 61 62 62 62
43 42 42 43 43 43 44 44 44 44 44 44 45 46 46 45 45 45 46 46 46 46 47 49 54 43 40 40 40 41 43 50 61 63 62 63 62 61 62 62 62 62
42 42 42 42 43 43 43 43 43 43 44 44 45 45 44 44 45 44 44 44 44 44 45 46 50 44 40 39 39 39 40 43 57 61 63 62 62 61 61 62 62 62
42 42 42 42 42 42 43 42 42 43 43 43 43 43 43 43 43 43 43 43 43 43 43 44 46 42 40 39 38 39 39 41 54 60 62 61 61 61 61 62 61 62
41 41 42 41 42 42 42 42 42 43 43 43 43 43 43 43 43 42 42 42 42 42 43 42 43 41 40 39 38 38 38 47 53 58 60 61 60 60 62 61 61 62
40 40 41 41 41 41 41 42 42 43 43 42 42 42 42 42 42 42 42 41 41 42 42 41 42 41 39 38 38 38 40 48 52 57 60 61 62 62 62 62 58 60
39 39 40 40 40 40 41 42 42 42 42 43 42 41 41 41 42 41 41 42 41 41 41 41 41 41 39 38 37 38 39 47 53 57 59 60 60 59 58 53 50 47
38 39 39 39 39 40 41 41 41 41 41 42 42 42 42 41 41 41 41 41 42 41 42 41 40 40 39 37 37 38 41 49 54 58 59 58 56 56 55 54 51 46
38 38 39 38 38 39 39 40 41 41 40 40 41 40 41 41 41 41 41 41 41 41 41 41 40 39 39 37 37 38 39 46 55 55 54 53 52 54 52 49 48 46